Hourly Data Report for October 01, 2013

All times are specified in Local Standard Time (LST). Add 1 hour to adjust for Daylight Saving Time where and when it is observed.

GRISE FIORD CLIMATE
NUNAVUT

76°25'22.040" N
82°54'08.020" W
44.50 m
2402351
71971
NGC

Download Data

Hourly Data (October 2013)
Hourly Data Report for October 1, 2013
Temp Definition
°C
Dew Point Temp Definition
°C
Rel Hum Definition
%
Wind Dir Definition
10's deg

Wind Spd Definition
km/h
Visibility Definition
km
Stn Press Definition
kPa
Hmdx Definition


Wind Chill Definition


Weather Definition


TIME
00:00 -5.1 -6.5 90 10 2   100.22   -6 LegendNANA
01:00 -5.3 -7.0 88 5 2   100.20   -6 LegendNANA
02:00 -5.3 -7.3 86 4 4   100.22   -7 LegendNANA
03:00 -5.0 -6.9 86 14 6   100.24   -8 LegendNANA
04:00 -4.6 -7.7 79 2 6   100.27   -7 LegendNANA
05:00 -3.6 -9.6 63 26 28   100.23   -11 LegendNANA
06:00 -3.4 -10.3 59 23 7   100.28   -6 LegendNANA
07:00 -3.7 -10.1 61 20 13   100.29   -9 LegendNANA
08:00 -3.4 -9.5 63 32 9   100.35   -7 LegendNANA
09:00 -3.9 -9.7 64 35 13   100.40   -9 LegendNANA
10:00 -3.3 -9.2 64 4 30   100.34   -11 LegendNANA
11:00 -2.4 -8.6 62 5 30   100.31   -10 LegendNANA
12:00 -2.3 -7.9 65 30 20   100.32   -8 LegendNANA
13:00 -2.4 -7.0 71 28 20   100.35   -8 LegendNANA
14:00 -1.6 -7.0 67 27 17   100.34   -7 LegendNANA
15:00 -1.4 -7.0 66 33 15   100.28   -6 LegendNANA
16:00 -1.4 -7.2 65 25 13   100.36   -6 LegendNANA
17:00 -1.2 -7.1 64 14 9   100.41   -4 LegendNANA
18:00 -1.3 -7.3 64 7 19   100.46   -7 LegendNANA
19:00 -1.7 -8.0 62 4 13   100.50   -6 LegendNANA
20:00 -1.9 -8.3 62 6 24   100.52   -8 LegendNANA
21:00 -2.5 -8.5 63 18 6   100.53   -5 LegendNANA
22:00 -2.4 -8.7 62 1 28   100.52   -9 LegendNANA
23:00 -2.9 -9.3 61 1 39   100.51   -11 LegendNANA

Notes on Data Quality.

Legend

  • E = Estimated
  • M = Missing
  • NA = Not Available
  • ‡ = Partner data that is not subject to review by the National Climate Archives
Date modified: